weather.gov     
National Weather Service

Regional Weather Roundup
NWS Homepage
This page is being discontinued on March 12, 2014.
The same data is available at this site. Please update your bookmarks.
Thank you, and we apologize for the inconvenience.
Please send an email to SR-SRH.Webmaster@noaa.gov with any concerns.


Current Version
Previous Version:    01  02  03  04  05  06  07  08  09  10  11  12  13  14  15  16  17  18  19  20  21  22  23  24  25  26  27  
[Printable]
589
ASUS41 KOKX 230705
RWROKX

REGIONAL WEATHER ROUNDUP
NATIONAL WEATHER SERVICE NEW YORK NY
300 AM EDT WED APR 23 2014

NOTE: "FAIR" INDICATES FEW OR NO CLOUDS BELOW 12,000 FEET WITH NO
SIGNIFICANT WEATHER AND/OR OBSTRUCTIONS TO VISIBILITY.

NYZ071-072-176-178-NJZ106-104-230800-
NEW YORK CITY METRO AREA


CITY           SKY/WX    TMP DP  RH WIND       PRES   REMARKS
CENTRAL PARK   CLOUDY    59  46  62 NW7       29.53R
LAGUARDIA APRT MOCLDY    58  45  62 NW13      29.49S
KENNEDY INTL   MOCLDY    53  48  83 SW9       29.50S
NEWARK/LIBERTY CLOUDY    58  47  66 W10       29.51R
TETERBORO      MOCLDY    58  45  62 NW8G17    29.50R
$$

NYZ177-179-078>081-230800-
LONG ISLAND NEW YORK

CITY           SKY/WX    TMP DP  RH WIND       PRES   REMARKS
FARMINGDALE    CLEAR     51  48  89 W5        29.48F
ISLIP          CLEAR     49  47  93 W5        29.46F FOG
SHIRLEY        CLEAR     44  43  96 CALM      29.48F FOG
WESTHAMPTON    FOG       39  37  93 CALM      29.49F VSB 1
MONTAUK POINT    N/A     45  43  93 CALM      29.48F
$$

NYZ052-065-067-230800-
HUDSON VALLEY

CITY           SKY/WX    TMP DP  RH WIND       PRES   REMARKS
WHITE PLAINS   CLEAR     54  48  80 NW9       29.47F
NEWBURGH       MOCLDY    52  50  93 CALM      29.51F
MONTGOMERY     CLOUDY    53  45  74 W5        29.50S
POUGHKEEPSIE   LGT RAIN  53  49  86 N10       29.50S
ALBANY         MOCLDY    47  38  71 W10G23    29.56S
$$

NJZ001-105-106-008-010-013-015-019>022-104-230800-
NEW JERSEY

CITY           SKY/WX    TMP DP  RH WIND       PRES   REMARKS
NEWARK/LIBERTY CLOUDY    58  47  66 W10       29.51R
TETERBORO      MOCLDY    58  45  62 NW8G17    29.50R
CALDWELL       MOCLDY    55  47  74 N5        29.52R
MORRISTOWN     CLOUDY    59  48  67 NW5       29.52S
SOMERVILLE     CLEAR     54  40  59 W8G16     29.52S
LINDEN         CLOUDY    58  47  66 W10       29.53S
SUSSEX         CLOUDY    54  43  66 NW6       29.54R
ANDOVER          N/A     52  44  74 N8        29.53F
TRENTON        PTCLDY    54  39  57 W14G22    29.56R
MILLVILLE      CLOUDY    56  38  50 NW15G23   29.60S
ATLANTIC CITY  CLOUDY    58  36  43 W18G28    29.57S
WRIGHTSTOWN    CLOUDY    56  35  46 W17       29.55R
TOMS RIVER     CLOUDY    57  41  54 W9        29.55S
BELMAR         CLOUDY    57  43  58 W14G28    29.53S
$$

PAZ047>061-062-071-230800-
EASTERN PENNSYLVANIA

CITY           SKY/WX    TMP DP  RH WIND       PRES   REMARKS
PHILADELPHIA   CLOUDY    53  31  42 NW20G31   29.63R
ALLENTOWN      CLOUDY    48  33  56 W12       29.59S
SCRANTON       CLOUDY    45  32  60 W7        29.60S
$$

CTZ002-004>006-009-010-012-RIZ004-006-007-MAZ004-011-015-230800-
SOUTHERN NEW ENGLAND
 IN CT

CITY           SKY/WX    TMP DP  RH WIND       PRES   REMARKS
BRADLEY INTL   CLOUDY    53  44  71 NW16      29.48F
HARTFORD       PTCLDY    50  47  89 CALM      29.48F
DANBURY        PTCLDY    48  47  96 CALM      29.49F FOG
WTRBRY/OXFORD  CLOUDY    54  46  76 NE7       29.50F
BRIDGEPORT     MOCLDY    50  48  93 CALM      29.47F
MERIDEN        MOCLDY    47  46  97 CALM      29.48F FOG
NEW HAVEN      CLOUDY    49  48  97 CALM      29.48S
CHESTER        FAIR      48  46  93 NW3       29.48S
GROTON         FOG       44  44 100 CALM      29.47S VSB 1/2
WILLIMANTIC    CLOUDY    49  48  97 CALM      29.47F FOG

 IN RI

CITY           SKY/WX    TMP DP  RH WIND       PRES   REMARKS
PROVIDENCE     FOG       47  46  97 S3        29.47F VSB 1/2
BLOCK ISLAND   CLEAR     46  43  87 W6        29.47F
WESTERLY       MOCLDY    45  44  97 CALM      29.47F FOG

 IN MA

CITY           SKY/WX    TMP DP  RH WIND       PRES   REMARKS
BOSTON         CLOUDY    54  50  86 SW9       29.45S
WORCESTER      CLOUDY    51  49  92 W10       29.46F
WESTFIELD      CLOUDY    53  44  71 N8        29.48S
PROVINCETOWN   CLOUDY    48  48 100 MISG      29.47S
NANTUCKET      MOCLDY    47  45  93 SW7       29.47F
$$

ANZ330-335-338-340-345-350-353-355-230800-
COASTAL MARINE OBSERVATIONS


STATION/POSITION TIME  SKY/WX   TEMP    WIND        PRES    VSBY  WAVE
                                AIR SEA DIR/SP/G                  HT/PER
                 (UTC)          (F)     (DEG/KT/KT) (MB)    (MI)  (FT/S)
NY HARB ENTRANCE 0700            53 47  VRB 14/ 16   998.6
4S FIRE IS       0600               47                N/A           4/ 8
23SW MTP         0700            46 43  230/  8/ 10  997.9          3/ 8
HUDSON CANYON    0600            49 45  250/ 12/ 14  999.7          4/ 8
EXECUTION ROCKS  0700            53 46  290/  2/  6   N/A
WESTERN LI SOUND 0700            52     250/  6/  8   N/A           0
CENTRAL LI SOUND 0700            45 44   50/  2/  4   N/A           0
EASTERN LI SOUND NOT AVBL
ROBBINS REEF     0700            58     270/ 14/ 16   N/A
$$


>>>>>>>>>>>>>>>>>>>>>>>>>>>> KEY <<<<<<<<<<<<<<<<<<<<<<<<<<<
>                                                          <
>     SKY/WX - SKY CONDITION/PRESENT WEATHER               <
>     TMP    - TEMPERATURE IN FAHRENHEIT                   <
>     DP     - DEWPOINT IN FAHRENHEIT                      <
>     RH     - RELATIVE HUMIDITY IN PERCENT                <
>     WIND   - DIRECTION AND SPEED IN MPH                  <
>     PRES   - MEAN SEA LEVEL PRESSURE IN INCHES OF HG     <
>     WCI    - WIND CHILL INDEX                            <
>     VSB    - VISIBILITY IN MILES                         <
>     HX     - HEAT INDEX                                  <
>     TC     - TEMPERATURE IN CELSIUS                      <
>     VRB    - VARIABLE WIND DIRECTION                     <
>                                                          <
>>>>>>>>>>>>>>>>>>>>>>>>>>>> KEY <<<<<<<<<<<<<<<<<<<<<<<<<<<






U.S. Dept. of Commerce
NOAA National Weather Service
1325 East West Highway
Silver Spring, MD 20910
E-mail: w-nws.webmaster@noaa.gov
Page last modified: May 16, 2007
NATIONAL WEATHER SERVICE: for Safety, for Work, for Fun - FOR LIFE